User: anonymous   Login
Location: Ch�tillon
(48.8024°N, 2.2935°E)
Time: 02:51:26
(UTC+00:00)
Language:

METEOR M2 - Orbit

View from above orbital plane
View from above orbital plane
View from above satellite
View from above satellite

Ground track
Ground track

The orbit data is extracted from the following two-line orbital elements,

1 40069U 14037A   22176.77452844 -.00000000  00000-0  19113-4 0  9993
2 40069  98.4305 194.1989 0004718 307.9639  52.1104 14.20711519413044
Epoch (UTC): 25 June 2022 18:35:19
Eccentricity: 0.0004718
inclination: 98.4305°
perigee height: 819 km
apogee height: 826 km
right ascension of ascending node: 194.1989°
argument of perigee: 307.9639°
revolutions per day: 14.20711519
mean anomaly at epoch: 52.1104°
orbit number at epoch: 41304

The dashed part of the orbit path shows where the satellite is in the earth's shadow,  

DLR